EW5351 Weather Reports


time (UTC)temp
F
wind
direction
speed
knots
gust
knots
rain 1hr
in
rain 24hr
in
rain mn
in
humidity
%
barometer
mb
20260507065118 56 317 0.9 5.2 0.00 0.07 0.00 85 1006.3
20260507064617 56 274 1.7 6.1 0.00 0.07 0.00 85 1006.4
20260507064116 56 331 1.7 7.8 0.00 0.07 0.00 84 1006.5
20260507063115 56 279 0.9 5.2 0.00 0.07 0.00 84 1006.5
20260507062115 56 275 0.9 3.5 0.00 0.07 0.00 84 1006.4
20260507061617 56 285 1.7 5.2 0.00 0.07 0.00 84 1006.2
20260507061115 57 274 2.6 7.8 0.00 0.07 0.00 84 1006.1
20260507060615 57 347 1.7 7.8 0.00 0.07 0.00 84 1006.3
20260507060116 57 273 1.7 5.2 0.00 0.07 0.00 84 1006.5
20260507055616 57 311 1.7 5.2 0.00 0.07 0.00 84 1006.4
20260507055112 57 333 1.7 8.7 0.00 0.07 0.00 85 1006.4
20260507054613 57 287 1.7 8.7 0.00 0.07 0.00 85 1006.5
20260507053114 58 229 1.7 7.0 0.00 0.07 0.00 86 1006.6
20260507052614 58 279 1.7 5.2 0.00 0.07 0.00 86 1006.6
20260507052112 58 290 1.7 7.8 0.00 0.07 0.00 86 1006.5
20260507051611 58 301 2.6 8.7 0.00 0.07 0.00 86 1006.3
20260507051112 58 331 1.7 8.7 0.00 0.07 0.00 87 1006.3
20260507050611 59 308 1.7 5.2 0.00 0.07 0.00 88 1006.4
20260507050113 59 280 1.7 9.6 0.00 0.07 0.00 89 1006.4
20260507045610 59 285 2.6 10.4 0.00 0.07 0.00 89 1006.4
20260507045111 59 253 2.6 10.4 0.01 0.07 0.00 89 1006.4
20260507044611 59 327 2.6 7.0 0.01 0.07 0.00 89 1006.4
20260507044109 60 344 1.7 7.0 0.01 0.07 0.00 90 1006.4
20260507043609 60 271 1.7 7.0 0.01 0.07 0.00 91 1006.2
20260507042607 60 269 1.7 6.1 0.01 0.07 0.00 91 1006.2
20260507042106 60 267 1.7 7.0 0.01 0.07 0.00 91 1006.3
20260507041605 60 250 1.7 7.0 0.01 0.07 0.00 91 1006.4
20260507040604 60 252 1.7 7.8 0.01 0.07 0.00 91 1006.5
20260507040104 60 273 1.7 7.8 0.01 0.07 0.00 91 1006.6
20260507035606 60 261 1.7 6.1 0.01 0.07 0.07 91 1006.7
20260507035103 60 252 1.7 6.1 0.00 0.06 0.06 91 1006.6
20260507034602 60 261 2.6 9.6 0.00 0.06 0.06 91 1006.5
20260507034100 60 0 2.6 9.6 0.00 0.06 0.06 91 1006.4
20260507033601 60 230 2.6 7.8 0.00 0.06 0.06 91 1006.3
20260507032600 60 246 2.6 12.2 0.00 0.06 0.06 91 1006.2
20260507032100 60 252 2.6 8.7 0.00 0.06 0.06 91 1006.1
20260507031600 60 222 2.6 10.4 0.00 0.06 0.06 91 1006.0
20260507031102 60 230 2.6 10.4 0.00 0.06 0.06 91 1005.9
20260507030601 60 223 1.7 7.8 0.00 0.06 0.06 91 1005.8
20260507030101 60 263 2.6 8.7 0.00 0.06 0.06 91 1005.8
20260507025559 60 236 2.6 8.7 0.00 0.06 0.06 91 1005.7
20260507024558 60 252 2.6 12.2 0.00 0.06 0.06 91 1005.9
20260507024058 59 265 2.6 12.2 0.00 0.06 0.06 91 1006.1
20260507023058 59 216 1.7 6.1 0.00 0.06 0.06 91 1006.0
20260507022559 59 192 1.7 6.1 0.00 0.06 0.06 91 1005.9
20260507022058 59 303 1.7 7.8 0.00 0.06 0.06 91 1005.9
20260507021558 59 255 1.7 7.8 0.00 0.06 0.06 91 1005.9
20260507020559 59 206 1.7 8.7 0.00 0.06 0.06 91 1006.1
20260507020057 59 178 2.6 8.7 0.00 0.06 0.06 91 1005.8
20260507015557 59 187 1.7 8.7 0.00 0.06 0.06 91 1005.8
20260507015057 59 195 2.6 7.0 0.00 0.06 0.06 91 1006.0
20260507014557 59 211 2.6 7.0 0.00 0.06 0.06 91 1006.0
20260507014054 59 194 2.6 7.0 0.00 0.06 0.06 91 1006.0
20260507013555 59 172 2.6 8.7 0.00 0.06 0.06 91 1006.1
20260507013053 59 200 3.5 11.3 0.00 0.06 0.06 91 1006.1
20260507012555 59 192 2.6 11.3 0.00 0.06 0.06 91 1006.1
20260507012053 59 202 2.6 10.4 0.00 0.06 0.06 91 1006.2
20260507011553 58 185 2.6 8.7 0.00 0.06 0.06 91 1006.3
20260507010553 58 226 2.6 9.6 0.00 0.06 0.06 91 1006.4
20260507005550 58 211 3.5 10.4 0.00 0.06 0.06 91 1006.5
20260507005051 58 215 3.5 10.4 0.00 0.06 0.06 91 1006.5
20260507004549 58 132 3.5 11.3 0.01 0.06 0.06 91 1006.4
20260507004049 58 188 3.5 11.3 0.01 0.06 0.06 90 1006.3
20260507003550 58 193 2.6 8.7 0.01 0.06 0.06 90 1006.4
20260507003048 58 184 3.5 7.8 0.01 0.06 0.06 90 1006.4
20260507002547 58 213 3.5 8.7 0.01 0.06 0.06 90 1006.4
20260507002048 58 196 3.5 9.6 0.02 0.06 0.06 90 1006.3
20260507001548 59 144 3.5 9.6 0.02 0.06 0.06 90 1006.3
20260507001049 59 231 2.6 7.8 0.02 0.06 0.06 90 1006.2
20260507000548 59 237 2.6 7.8 0.02 0.06 0.06 90 1006.1
20260507000048 59 159 3.5 11.3 0.02 0.06 0.06 90 1006.0
20260506235548 59 229 3.5 14.8 0.02 0.06 0.06 90 1006.1
20260506234546 59 202 4.3 12.2 0.01 0.05 0.05 90 1006.2
20260506234046 59 236 4.3 12.2 0.01 0.05 0.05 89 1006.0
20260506233546 59 244 4.3 11.3 0.01 0.05 0.05 89 1006.0
20260506233046 60 220 3.5 13.9 0.01 0.05 0.05 89 1005.9
20260506232546 60 155 3.5 13.9 0.01 0.05 0.05 89 1006.0
20260506232048 60 136 3.5 9.6 0.00 0.04 0.05 89 1006.0
20260506231546 60 154 3.5 9.6 0.00 0.04 0.04 89 1006.0
20260506231047 60 234 3.5 8.7 0.00 0.04 0.04 88 1006.0
20260506230546 60 140 3.5 9.6 0.00 0.04 0.04 88 1006.0
20260506230046 60 186 4.3 9.6 0.01 0.04 0.04 88 1006.1
20260506225546 60 230 4.3 9.6 0.01 0.04 0.04 88 1006.0
20260506225048 60 218 3.5 7.8 0.01 0.04 0.04 88 1006.1
20260506224546 61 179 2.6 7.0 0.01 0.04 0.04 88 1006.1
20260506224046 61 222 3.5 8.7 0.01 0.04 0.04 87 1006.3
20260506223547 61 227 3.5 9.6 0.01 0.04 0.04 87 1006.2
20260506223045 61 182 3.5 9.6 0.01 0.04 0.04 87 1006.3
20260506222548 62 185 2.6 9.6 0.01 0.04 0.04 87 1006.4
20260506222046 62 217 2.6 9.6 0.01 0.04 0.04 87 1006.5
20260506221546 62 198 2.6 8.7 0.01 0.04 0.04 87 1006.5
20260506221046 62 189 3.5 8.7 0.01 0.04 0.04 86 1006.5
20260506220546 62 137 3.5 9.6 0.01 0.04 0.04 86 1006.5
20260506220046 62 229 3.5 9.6 0.00 0.03 0.03 86 1006.6
20260506215545 62 209 4.3 13.9 0.01 0.03 0.03 85 1006.7
20260506214547 62 158 3.5 8.7 0.01 0.03 0.03 84 1007.0
20260506214045 63 221 3.5 9.6 0.01 0.03 0.03 84 1007.0
20260506213544 63 182 3.5 12.2 0.01 0.03 0.03 84 1007.1
20260506213043 63 242 4.3 12.2 0.01 0.03 0.03 84 1007.0
20260506212544 63 215 4.3 15.6 0.01 0.03 0.03 83 1007.0
20260506212043 63 206 4.3 15.6 0.01 0.03 0.03 83 1007.0
20260506211042 63 242 4.3 12.2 0.01 0.03 0.03 83 1007.0
20260506210042 62 141 5.2 16.5 0.01 0.03 0.03 82 1007.1
20260506205539 63 214 6.1 13.9 0.00 0.02 0.02 82 1007.0
20260506205039 63 205 5.2 13.9 0.01 0.02 0.02 81 1007.1
20260506204540 63 130 4.3 13.9 0.01 0.02 0.02 81 1007.3
20260506204039 63 199 4.3 12.2 0.01 0.02 0.02 80 1007.3
20260506203542 64 203 4.3 12.2 0.01 0.02 0.02 79 1007.3
20260506203040 64 121 4.3 11.3 0.01 0.02 0.02 78 1007.4
20260506202539 64 204 5.2 16.5 0.01 0.02 0.02 78 1007.3
20260506202037 64 142 5.2 16.5 0.01 0.02 0.02 78 1007.2
20260506201538 64 278 4.3 12.2 0.02 0.02 0.02 77 1007.2
20260506201038 64 223 4.3 11.3 0.02 0.02 0.02 77 1007.0
20260506200038 65 244 4.3 11.3 0.02 0.02 0.02 76 1007.0
20260506195538 65 188 4.3 13.9 0.02 0.02 0.02 75 1007.0
20260506194537 65 226 5.2 12.2 0.01 0.01 0.01 74 1007.2
20260506194038 66 150 4.3 12.2 0.01 0.01 0.01 73 1007.5
20260506193535 66 221 4.3 14.8 0.01 0.01 0.01 71 1007.4
20260506192535 67 200 4.3 12.2 0.01 0.01 0.01 69 1007.4
20260506192036 67 143 4.3 12.2 0.01 0.01 0.01 68 1007.3
20260506191537 68 204 4.3 18.2 0.00 0.00 0.00 67 1007.3
20260506191035 68 152 4.3 18.2 0.00 0.00 0.00 66 1007.3
20260506190036 69 178 5.2 13.9 0.00 0.00 0.00 62 1007.2
20260506185537 69 137 4.3 15.6 0.00 0.00 0.00 62 1007.2
20260506184534 70 256 6.1 15.6 0.00 0.00 0.00 60 1007.3
20260506184034 70 213 5.2 15.6 0.00 0.00 0.00 60 1007.3
20260506183533 71 260 5.2 12.2 0.00 0.00 0.00 58 1007.4
20260506183035 71 237 6.1 14.8 0.00 0.00 0.00 57 1007.4
20260506182534 71 124 5.2 14.8 0.00 0.00 0.00 57 1007.3
20260506182033 71 263 5.2 13.9 0.00 0.00 0.00 56 1007.4
20260506181533 72 207 6.1 13.9 0.00 0.00 0.00 56 1007.5
20260506181033 72 256 6.1 13.9 0.00 0.00 0.00 55 1007.4
20260506180533 73 115 5.2 18.2 0.00 0.00 0.00 55 1007.4
20260506180034 73 217 5.2 18.2 0.00 0.00 0.00 55 1007.6
20260506175533 73 181 5.2 14.8 0.00 0.00 0.00 54 1007.6
20260506174536 73 248 5.2 15.6 0.00 0.00 0.00 55 1007.8
20260506174032 73 190 6.1 15.6 0.00 0.00 0.00 55 1007.8
20260506173532 73 209 5.2 13.9 0.00 0.00 0.00 56 1007.9
20260506172533 73 185 5.2 14.8 0.00 0.00 0.00 57 1007.9
20260506172032 72 113 5.2 14.8 0.00 0.00 0.00 57 1007.9
20260506171534 72 219 5.2 14.8 0.00 0.00 0.00 57 1007.9
20260506171035 72 256 6.1 14.8 0.00 0.00 0.00 57 1007.8
20260506170533 72 167 5.2 15.6 0.00 0.00 0.00 58 1008.0
20260506165534 72 213 7.0 19.1 0.00 0.00 0.00 57 1008.1
20260506165031 72 203 6.1 19.1 0.00 0.00 0.00 57 1008.3
20260506164531 73 148 5.2 13.9 0.00 0.00 0.00 57 1008.3
20260506164032 73 161 5.2 12.2 0.00 0.00 0.00 56 1008.3
20260506163532 73 150 5.2 12.2 0.00 0.00 0.00 56 1008.3
20260506163033 73 127 4.3 11.3 0.00 0.00 0.00 56 1008.4
20260506162531 73 169 4.3 12.2 0.00 0.00 0.00 56 1008.5
20260506161531 73 203 4.3 11.3 0.00 0.00 0.00 56 1008.7
20260506160529 73 164 4.3 11.3 0.00 0.00 0.00 56 1008.9
20260506160030 73 187 3.5 12.2 0.00 0.00 0.00 56 1009.0
20260506155528 73 127 4.3 13.0 0.00 0.00 0.00 56 1009.1
20260506155029 73 248 5.2 17.4 0.00 0.00 0.00 56 1009.1
20260506154529 73 159 5.2 17.4 0.00 0.00 0.00 56 1009.2
20260506154028 73 153 5.2 13.0 0.00 0.00 0.00 55 1009.2
20260506153528 73 304 6.1 13.0 0.00 0.00 0.00 55 1009.3
20260506153029 73 182 6.1 13.0 0.00 0.00 0.00 54 1009.3
20260506152530 73 109 6.1 14.8 0.00 0.00 0.00 55 1009.4
20260506152030 73 224 7.0 19.1 0.00 0.00 0.00 55 1009.4
20260506151529 74 258 6.1 19.1 0.00 0.00 0.00 54 1009.3
20260506151028 74 252 5.2 15.6 0.00 0.00 0.00 55 1009.5
20260506150529 73 184 4.3 15.6 0.00 0.00 0.00 56 1009.5
20260506150028 73 250 4.3 10.4 0.00 0.00 0.00 57 1009.6
20260506145528 72 135 5.2 11.3 0.00 0.00 0.00 57 1009.6
20260506144029 72 211 5.2 14.8 0.00 0.00 0.00 58 1009.5
20260506143528 71 223 4.3 10.4 0.00 0.00 0.00 59 1009.5
20260506143029 71 210 5.2 13.0 0.00 0.00 0.00 59 1009.5
20260506142528 71 212 4.3 13.0 0.00 0.00 0.00 59 1009.4
20260506142029 71 145 4.3 11.3 0.00 0.00 0.00 60 1009.5
20260506141029 70 217 4.3 10.4 0.00 0.00 0.00 61 1009.5
20260506140529 70 190 4.3 11.3 0.00 0.00 0.00 63 1009.7
20260506135528 69 130 3.5 11.3 0.00 0.00 0.00 65 1009.6
20260506134529 68 231 3.5 12.2 0.00 0.00 0.00 66 1009.5
20260506134029 67 244 3.5 12.2 0.00 0.00 0.00 67 1009.9
20260506133526 67 175 4.3 10.4 0.00 0.00 0.00 67 1010.2
20260506133027 67 147 4.3 10.4 0.00 0.00 0.00 68 1010.2
20260506132528 67 243 4.3 12.2 0.00 0.00 0.00 68 1010.2
20260506132027 67 223 4.3 13.0 0.00 0.00 0.00 67 1010.1
20260506131026 67 5 5.2 13.0 0.00 0.00 0.00 68 1010.1
20260506130527 67 253 5.2 13.0 0.00 0.00 0.00 68 1010.0
20260506130026 67 135 4.3 13.0 0.00 0.00 0.00 68 1010.1
20260506125528 67 229 4.3 10.4 0.00 0.00 0.00 69 1010.2
20260506125024 66 214 4.3 11.3 0.00 0.00 0.00 70 1010.2
20260506124525 66 216 4.3 11.3 0.00 0.00 0.00 70 1010.2
20260506124024 65 220 4.3 11.3 0.00 0.00 0.00 71 1010.4
20260506123522 65 252 4.3 10.4 0.00 0.00 0.00 72 1010.4
20260506123022 65 202 4.3 11.3 0.00 0.00 0.00 72 1010.3
20260506122522 65 213 4.3 11.3 0.00 0.00 0.00 72 1010.2
20260506122021 65 250 3.5 10.4 0.00 0.00 0.00 72 1010.1
20260506121521 64 198 2.6 7.8 0.00 0.00 0.00 74 1010.2
20260506121018 64 279 2.6 7.8 0.00 0.00 0.00 75 1010.2
20260506120517 63 226 3.5 9.6 0.00 0.00 0.00 75 1010.4
20260506120016 63 175 3.5 9.6 0.00 0.00 0.00 75 1010.5
20260506115517 63 162 3.5 9.6 0.00 0.00 0.00 76 1010.6
20260506115017 63 198 3.5 9.6 0.00 0.00 0.00 76 1010.4
20260506114017 63 188 3.5 9.6 0.00 0.00 0.00 75 1010.8
20260506113515 63 169 3.5 9.6 0.00 0.00 0.00 76 1010.8
20260506112514 63 248 3.5 9.6 0.00 0.00 0.00 75 1010.6
20260506112014 63 215 2.6 8.7 0.00 0.00 0.00 75 1010.5
20260506111516 63 169 3.5 10.4 0.00 0.00 0.00 75 1010.7
20260506111013 63 178 4.3 13.0 0.00 0.00 0.00 75 1010.6
20260506110514 63 188 3.5 13.0 0.00 0.00 0.00 76 1010.5
20260506110015 62 158 2.6 9.6 0.00 0.00 0.00 77 1010.5
20260506105514 62 138 2.6 8.7 0.00 0.00 0.00 78 1010.5
20260506105014 62 267 2.6 7.8 0.00 0.00 0.00 77 1010.5
20260506104512 62 288 3.5 8.7 0.00 0.00 0.00 77 1010.5
20260506104012 62 196 3.5 8.7 0.00 0.00 0.00 77 1010.6
20260506103512 62 125 2.6 9.6 0.00 0.00 0.00 77 1010.7
20260506103012 62 213 2.6 9.6 0.00 0.00 0.00 77 1010.7
20260506102514 62 290 2.6 9.6 0.00 0.00 0.00 77 1010.7
20260506102013 62 195 2.6 7.8 0.00 0.00 0.00 77 1010.6
20260506101513 61 217 3.5 9.6 0.00 0.00 0.00 77 1010.6
20260506101014 61 203 2.6 9.6 0.00 0.00 0.00 78 1010.5
20260506095508 61 187 3.5 7.8 0.00 0.00 0.00 78 1010.4
20260506095010 61 188 2.6 8.7 0.00 0.00 0.00 78 1010.2
20260506094508 61 183 2.6 8.7 0.00 0.00 0.00 78 1010.3
20260506094006 61 173 2.6 7.8 0.00 0.00 0.00 77 1010.4
20260506093507 61 221 2.6 7.8 0.00 0.00 0.00 77 1010.5
20260506092507 61 165 1.7 5.2 0.00 0.00 0.00 77 1010.4
20260506092007 61 245 1.7 7.8 0.00 0.00 0.00 77 1010.4
20260506091504 61 200 2.6 7.8 0.00 0.00 0.00 77 1010.3
20260506091005 61 206 2.6 13.0 0.00 0.00 0.00 77 1010.3
20260506090504 61 198 2.6 13.0 0.00 0.00 0.00 77 1010.4
20260506090004 61 163 2.6 7.8 0.00 0.00 0.00 76 1010.4
20260506085500 61 152 3.5 8.7 0.00 0.00 0.00 76 1010.4
20260506085000 61 165 3.5 10.4 0.00 0.00 0.00 76 1010.4
20260506084501 61 202 2.6 10.4 0.00 0.00 0.00 77 1010.4
20260506083459 61 147 3.5 12.2 0.00 0.00 0.00 76 1010.4
20260506083001 61 186 2.6 9.6 0.00 0.00 0.00 76 1010.5
20260506082457 61 223 3.5 9.6 0.00 0.00 0.00 76 1010.4
20260506081958 61 196 3.5 8.7 0.00 0.00 0.00 76 1010.2
20260506081459 61 177 4.3 8.7 0.00 0.00 0.00 76 1010.2
20260506080958 61 149 3.5 7.8 0.00 0.00 0.00 76 1010.3
20260506080457 61 217 3.5 10.4 0.00 0.00 0.00 75 1010.3
20260506073459 62 198 3.5 10.4 0.00 0.00 0.00 74 1010.2
20260506072959 62 172 3.5 9.6 0.00 0.00 0.00 74 1010.2
20260506072457 62 179 3.5 7.8 0.00 0.00 0.00 74 1010.2
20260506071957 62 206 2.6 7.8 0.00 0.00 0.00 73 1010.1
20260506071500 62 159 2.6 8.7 0.00 0.00 0.00 73 1010.1
20260506070958 62 174 3.5 9.6 0.00 0.00 0.00 72 1010.1
20260506070457 62 258 3.5 9.6 0.00 0.00 0.00 72 1010.1